Time,TemperatureF,DewpointF,PressureIn,WindDirection,WindDirectionDegrees,WindSpeedMPH,WindSpeedGustMPH,Humidity,HourlyPrecipIn,Conditions,Clouds,dailyrainin,SolarRadiationWatts/m^2,SoftwareType,DateUTC
2013-05-23 00:01:00,62.5,60.4,29.64,SSW,199,6.9,6.9,93,0.00,RA,,0.00,0.0,WeatherDisplay:10.37,2013-05-23 04:01:00,
2013-05-23 00:06:00,62.5,60.4,29.64,SW,218,11.5,11.5,93,0.00,RA,,0.00,0.0,WeatherDisplay:10.37,2013-05-23 04:06:00,
2013-05-23 00:11:00,62.4,60.3,29.64,SSW,202,9.0,9.0,93,0.00,CLR,,0.00,0.0,WeatherDisplay:10.37,2013-05-23 04:11:00,
2013-05-23 00:16:00,62.4,60.3,29.64,WSW,254,10.4,10.4,93,0.00,CLR,,0.00,0.0,WeatherDisplay:10.37,2013-05-23 04:16:00,
2013-05-23 00:21:00,62.3,60.2,29.64,SW,231,5.0,5.0,93,0.00,CLR,,0.00,0.0,WeatherDisplay:10.37,2013-05-23 04:21:00,
2013-05-23 00:26:00,62.3,60.2,29.65,SW,224,6.9,6.9,93,0.00,CLR,,0.00,0.0,WeatherDisplay:10.37,2013-05-23 04:26:00,
2013-05-23 00:31:00,62.2,60.5,29.64,SW,236,5.8,5.8,94,0.00,CLR,,0.00,0.0,WeatherDisplay:10.37,2013-05-23 04:31:00,
2013-05-23 00:36:00,62.1,60.4,29.64,SW,222,7.0,7.0,94,0.00,CLR,,0.00,0.0,WeatherDisplay:10.37,2013-05-23 04:36:00,
2013-05-23 00:41:00,62.0,60.3,29.65,SW,232,8.0,8.0,94,0.00,CLR,,0.00,0.0,WeatherDisplay:10.37,2013-05-23 04:41:00,
2013-05-23 00:46:00,61.9,60.2,29.65,SW,225,6.9,6.9,94,0.00,CLR,,0.00,0.0,WeatherDisplay:10.37,2013-05-23 04:46:00,
2013-05-23 00:51:00,61.8,60.1,29.65,WSW,254,8.0,8.0,94,0.00,CLR,,0.00,0.0,WeatherDisplay:10.37,2013-05-23 04:51:00,
2013-05-23 00:56:00,61.8,60.1,29.65,West,265,8.1,8.1,94,0.00,CLR,,0.00,0.0,WeatherDisplay:10.37,2013-05-23 04:56:00,
2013-05-23 01:01:00,61.8,60.1,29.65,SW,234,6.0,6.0,94,0.00,CLR,,0.00,0.0,WeatherDisplay:10.37,2013-05-23 05:01:00,
2013-05-23 01:06:00,61.7,60.0,29.65,SW,232,8.1,8.1,94,0.00,CLR,,0.00,0.0,WeatherDisplay:10.37,2013-05-23 05:06:00,
2013-05-23 01:11:00,61.6,59.9,29.65,SW,217,6.9,6.9,94,0.00,CLR,,0.00,0.0,WeatherDisplay:10.37,2013-05-23 05:11:00,
2013-05-23 01:16:00,61.5,59.8,29.65,SW,225,9.2,9.2,94,0.00,CLR,,0.00,0.0,WeatherDisplay:10.37,2013-05-23 05:16:00,
2013-05-23 01:21:00,61.4,59.7,29.65,WSW,246,8.1,8.1,94,0.00,CLR,,0.00,0.0,WeatherDisplay:10.37,2013-05-23 05:21:00,
2013-05-23 01:26:00,61.3,59.6,29.66,WSW,250,8.1,8.1,94,0.00,CLR,,0.00,0.0,WeatherDisplay:10.37,2013-05-23 05:26:00,
2013-05-23 01:31:00,61.2,59.2,29.65,WSW,242,9.2,9.2,93,0.00,CLR,,0.00,0.0,WeatherDisplay:10.37,2013-05-23 05:31:00,
2013-05-23 01:36:00,61.1,59.1,29.66,SW,222,4.0,4.0,93,0.00,CLR,,0.00,0.0,WeatherDisplay:10.37,2013-05-23 05:36:00,
2013-05-23 01:41:00,61.0,59.0,29.66,WSW,244,6.9,6.9,93,0.00,CLR,,0.00,0.0,WeatherDisplay:10.37,2013-05-23 05:41:00,
2013-05-23 01:46:00,60.9,59.2,29.66,WSW,240,5.8,5.8,94,0.00,CLR,,0.00,0.0,WeatherDisplay:10.37,2013-05-23 05:46:00,
2013-05-23 01:51:00,60.8,59.1,29.66,WSW,257,10.4,10.4,94,0.00,CLR,,0.00,0.0,WeatherDisplay:10.37,2013-05-23 05:51:00,
2013-05-23 01:56:00,60.7,59.0,29.66,SW,228,9.2,9.2,94,0.00,CLR,,0.00,0.0,WeatherDisplay:10.37,2013-05-23 05:56:00,
2013-05-23 02:01:00,60.6,58.9,29.66,WSW,252,6.9,6.9,94,0.00,CLR,,0.00,0.0,WeatherDisplay:10.37,2013-05-23 06:01:00,
2013-05-23 02:06:00,60.6,58.9,29.66,West,267,5.8,5.8,94,0.00,CLR,,0.00,0.0,WeatherDisplay:10.37,2013-05-23 06:06:00,
2013-05-23 02:11:00,60.5,58.8,29.66,WNW,290,8.1,8.1,94,0.00,CLR,,0.00,0.0,WeatherDisplay:10.37,2013-05-23 06:11:00,
2013-05-23 02:16:00,60.5,58.8,29.66,WNW,286,6.9,6.9,94,0.00,CLR,,0.00,0.0,WeatherDisplay:10.37,2013-05-23 06:16:00,
2013-05-23 02:21:00,60.4,58.7,29.66,West,277,4.6,4.6,94,0.00,CLR,,0.00,0.0,WeatherDisplay:10.37,2013-05-23 06:21:00,
2013-05-23 02:26:00,60.4,58.7,29.66,WNW,288,6.9,6.9,94,0.00,CLR,,0.00,0.0,WeatherDisplay:10.37,2013-05-23 06:26:00,
2013-05-23 02:31:00,60.4,58.7,29.66,WSW,252,4.6,4.6,94,0.00,CLR,,0.00,0.0,WeatherDisplay:10.37,2013-05-23 06:31:00,
2013-05-23 02:36:00,60.5,59.1,29.66,West,275,7.0,7.0,95,0.00,CLR,,0.00,0.0,WeatherDisplay:10.37,2013-05-23 06:36:00,
2013-05-23 02:41:00,60.5,59.1,29.66,WSW,239,8.1,8.1,95,0.00,CLR,,0.00,0.0,WeatherDisplay:10.37,2013-05-23 06:41:00,
2013-05-23 02:46:00,60.6,58.9,29.66,West,268,6.9,6.9,94,0.00,CLR,,0.00,0.0,WeatherDisplay:10.37,2013-05-23 06:46:00,
2013-05-23 02:51:00,60.6,58.9,29.66,West,264,6.0,6.0,94,0.00,CLR,,0.00,0.0,WeatherDisplay:10.37,2013-05-23 06:51:00,
2013-05-23 02:56:00,60.6,58.9,29.66,WNW,296,6.9,6.9,94,0.00,CLR,,0.00,0.0,WeatherDisplay:10.37,2013-05-23 06:56:00,
2013-05-23 03:01:00,60.6,58.9,29.66,WSW,252,8.0,8.0,94,0.00,CLR,,0.00,0.0,WeatherDisplay:10.37,2013-05-23 07:01:00,
2013-05-23 03:06:00,60.7,59.0,29.66,WNW,297,11.5,11.5,94,0.00,CLR,,0.00,0.0,WeatherDisplay:10.37,2013-05-23 07:06:00,
2013-05-23 03:11:00,60.7,59.0,29.67,SW,236,6.0,6.0,94,0.00,CLR,,0.00,0.0,WeatherDisplay:10.37,2013-05-23 07:11:00,
2013-05-23 03:16:00,60.6,58.9,29.67,WSW,244,9.2,9.2,94,0.00,CLR,,0.00,0.0,WeatherDisplay:10.37,2013-05-23 07:16:00,
2013-05-23 03:21:00,60.6,58.9,29.67,WSW,255,8.0,8.0,94,0.00,CLR,,0.00,0.0,WeatherDisplay:10.37,2013-05-23 07:21:00,
2013-05-23 03:26:00,60.5,58.8,29.66,WSW,254,6.9,6.9,94,0.00,CLR,,0.00,0.0,WeatherDisplay:10.37,2013-05-23 07:26:00,
2013-05-23 03:31:00,60.5,58.5,29.67,West,268,9.2,9.2,93,0.00,CLR,,0.00,0.0,WeatherDisplay:10.37,2013-05-23 07:31:00,
2013-05-23 03:36:00,60.5,58.8,29.67,WSW,254,8.1,8.1,94,0.00,CLR,,0.00,0.0,WeatherDisplay:10.37,2013-05-23 07:36:00,
2013-05-23 03:41:00,60.4,58.7,29.67,WSW,244,5.8,5.8,94,0.00,CLR,,0.00,0.0,WeatherDisplay:10.37,2013-05-23 07:41:00,
2013-05-23 03:47:00,60.4,58.7,29.67,SW,223,3.5,3.5,94,0.00,CLR,,0.00,0.0,WeatherDisplay:10.37,2013-05-23 07:47:00,
2013-05-23 03:53:00,60.3,58.6,29.67,SW,234,4.6,4.6,94,0.00,CLR,,0.00,0.0,WeatherDisplay:10.37,2013-05-23 07:53:00,
2013-05-23 03:58:00,60.3,58.6,29.67,WSW,254,3.5,3.5,94,0.00,CLR,,0.00,0.0,WeatherDisplay:10.37,2013-05-23 07:58:00,
2013-05-23 04:03:00,60.2,58.5,29.67,WSW,251,6.9,6.9,94,0.00,CLR,,0.00,0.0,WeatherDisplay:10.37,2013-05-23 08:03:00,
2013-05-23 04:08:00,60.3,58.6,29.67,WSW,242,4.6,4.6,94,0.00,CLR,,0.00,0.0,WeatherDisplay:10.37,2013-05-23 08:08:00,
2013-05-23 04:13:00,60.2,58.5,29.67,WSW,258,5.8,5.8,94,0.00,CLR,,0.00,0.0,WeatherDisplay:10.37,2013-05-23 08:13:00,
2013-05-23 04:18:00,60.2,58.5,29.67,West,265,6.0,6.0,94,0.00,CLR,,0.00,0.0,WeatherDisplay:10.37,2013-05-23 08:18:00,
2013-05-23 04:23:00,60.2,58.5,29.67,West,261,6.0,6.0,94,0.00,CLR,,0.00,0.0,WeatherDisplay:10.37,2013-05-23 08:23:00,
2013-05-23 04:28:00,60.2,58.5,29.67,WSW,257,5.0,5.0,94,0.00,CLR,,0.00,0.0,WeatherDisplay:10.37,2013-05-23 08:28:00,
2013-05-23 04:33:00,60.2,58.5,29.67,West,274,6.0,6.0,94,0.00,CLR,,0.00,0.0,WeatherDisplay:10.37,2013-05-23 08:33:00,
2013-05-23 04:38:00,60.2,58.5,29.67,WSW,253,8.0,8.0,94,0.00,CLR,,0.00,0.0,WeatherDisplay:10.37,2013-05-23 08:38:00,
2013-05-23 04:43:00,60.2,58.5,29.68,WSW,250,10.0,10.0,94,0.00,CLR,,0.00,0.0,WeatherDisplay:10.37,2013-05-23 08:43:00,
2013-05-23 04:48:00,60.2,58.5,29.68,West,265,3.5,3.5,94,0.00,CLR,,0.00,0.0,WeatherDisplay:10.37,2013-05-23 08:48:00,
2013-05-23 04:53:00,60.2,58.5,29.68,West,263,6.9,6.9,94,0.00,CLR,,0.00,0.0,WeatherDisplay:10.37,2013-05-23 08:53:00,
2013-05-23 04:58:00,60.2,58.5,29.67,SW,236,3.5,3.5,94,0.00,CLR,,0.00,0.0,WeatherDisplay:10.37,2013-05-23 08:58:00,
2013-05-23 05:03:00,60.2,58.5,29.68,West,281,5.8,5.8,94,0.00,CLR,,0.00,0.0,WeatherDisplay:10.37,2013-05-23 09:03:00,
2013-05-23 05:08:00,60.2,58.5,29.68,WNW,290,5.8,5.8,94,0.00,CLR,,0.00,0.0,WeatherDisplay:10.37,2013-05-23 09:08:00,
2013-05-23 05:13:00,60.2,58.5,29.68,SW,236,2.3,2.3,94,0.00,CLR,,0.00,0.0,WeatherDisplay:10.37,2013-05-23 09:13:00,
2013-05-23 05:18:00,60.2,58.5,29.68,WSW,249,2.0,2.0,94,0.00,CLR,,0.00,0.0,WeatherDisplay:10.37,2013-05-23 09:18:00,
2013-05-23 05:23:00,60.2,58.5,29.68,West,262,2.3,2.3,94,0.00,CLR,,0.00,0.0,WeatherDisplay:10.37,2013-05-23 09:23:00,
2013-05-23 05:28:00,60.2,58.5,29.68,WSW,257,6.9,6.9,94,0.00,CLR,,0.00,0.0,WeatherDisplay:10.37,2013-05-23 09:28:00,
2013-05-23 05:33:00,60.2,58.5,29.68,WSW,254,3.5,3.5,94,0.00,CLR,,0.00,0.0,WeatherDisplay:10.37,2013-05-23 09:33:00,
2013-05-23 05:38:00,60.3,58.6,29.68,WSW,250,3.5,3.6,94,0.00,CLR,,0.00,0.0,WeatherDisplay:10.37,2013-05-23 09:38:00,
2013-05-23 05:43:00,60.3,58.6,29.68,WSW,255,5.0,5.0,94,0.00,CLR,,0.00,0.0,WeatherDisplay:10.37,2013-05-23 09:43:00,
2013-05-23 05:48:00,60.3,58.6,29.68,West,265,4.6,4.6,94,0.00,CLR,,0.00,0.0,WeatherDisplay:10.37,2013-05-23 09:48:00,
2013-05-23 05:53:00,60.3,58.6,29.68,West,279,6.9,6.9,94,0.00,CLR,,0.00,0.0,WeatherDisplay:10.37,2013-05-23 09:53:00,
2013-05-23 05:58:00,60.3,58.6,29.69,WSW,240,4.6,0.0,94,0.00,CLR,,0.00,0.0,WeatherDisplay:10.37,2013-05-23 09:58:00,
2013-05-23 06:03:00,60.3,58.6,29.69,West,259,3.5,3.5,94,0.00,CLR,,0.00,0.0,WeatherDisplay:10.37,2013-05-23 10:03:00,
2013-05-23 06:08:00,60.3,58.6,29.69,WSW,248,6.9,6.9,94,0.00,CLR,,0.00,0.0,WeatherDisplay:10.37,2013-05-23 10:08:00,
2013-05-23 06:13:00,60.3,58.6,29.69,West,273,3.5,3.5,94,0.00,CLR,,0.00,0.0,WeatherDisplay:10.37,2013-05-23 10:13:00,
2013-05-23 06:18:00,60.3,58.6,29.69,WSW,238,4.6,4.6,94,0.00,CLR,,0.00,0.0,WeatherDisplay:10.37,2013-05-23 10:18:00,
2013-05-23 06:23:00,60.3,58.6,29.69,SW,229,4.6,4.6,94,0.00,CLR,,0.00,0.0,WeatherDisplay:10.37,2013-05-23 10:23:00,
2013-05-23 06:28:00,60.3,58.6,29.69,WSW,237,0.0,0.0,94,0.00,CLR,,0.00,0.0,WeatherDisplay:10.37,2013-05-23 10:28:00,
2013-05-23 06:33:00,60.3,58.6,29.70,NNW,345,4.0,4.0,94,0.00,CLR,,0.00,0.0,WeatherDisplay:10.37,2013-05-23 10:33:00,
2013-05-23 06:38:00,59.6,57.3,29.70,North,5,6.0,6.0,92,0.00,CLR,,0.00,0.0,WeatherDisplay:10.37,2013-05-23 10:38:00,
2013-05-23 06:43:00,59.1,57.1,29.70,ENE,63,4.6,4.6,93,0.00,CLR,,0.00,0.0,WeatherDisplay:10.37,2013-05-23 10:43:00,
2013-05-23 06:48:00,58.6,56.6,29.70,NE,40,4.6,4.6,93,0.00,CLR,,0.00,0.0,WeatherDisplay:10.37,2013-05-23 10:48:00,
2013-05-23 06:53:00,58.2,56.5,29.70,NNE,14,6.0,6.0,94,0.00,CLR,,0.00,0.0,WeatherDisplay:10.37,2013-05-23 10:53:00,
2013-05-23 06:58:00,57.8,56.1,29.70,NNE,24,4.0,4.0,94,0.00,CLR,,0.00,0.0,WeatherDisplay:10.37,2013-05-23 10:58:00,
2013-05-23 07:03:00,57.3,55.6,29.71,NNE,19,5.8,5.8,94,0.00,CLR,,0.00,5.0,WeatherDisplay:10.37,2013-05-23 11:03:00,
2013-05-23 07:08:00,57.1,55.4,29.71,ENE,68,2.3,2.3,94,0.00,CLR,,0.00,7.0,WeatherDisplay:10.37,2013-05-23 11:08:00,
2013-05-23 07:13:00,56.8,55.4,29.71,NE,38,4.0,4.0,95,0.00,CLR,,0.00,9.0,WeatherDisplay:10.37,2013-05-23 11:13:00,
2013-05-23 07:18:00,56.6,55.2,29.71,NNE,15,5.0,5.0,95,0.00,CLR,,0.00,5.0,WeatherDisplay:10.37,2013-05-23 11:18:00,
2013-05-23 07:23:00,56.4,55.0,29.71,NNE,15,2.3,2.3,95,0.00,CLR,,0.00,7.0,WeatherDisplay:10.37,2013-05-23 11:23:00,
2013-05-23 07:28:00,56.3,54.9,29.72,NNE,24,2.3,2.3,95,0.00,CLR,,0.00,11.0,WeatherDisplay:10.37,2013-05-23 11:28:00,
2013-05-23 07:33:00,56.3,54.9,29.72,NE,36,3.5,3.5,95,0.00,CLR,,0.00,12.0,WeatherDisplay:10.37,2013-05-23 11:33:00,
2013-05-23 07:38:00,56.2,54.8,29.72,North,355,4.6,4.6,95,0.00,CLR,,0.00,14.0,WeatherDisplay:10.37,2013-05-23 11:38:00,
2013-05-23 07:43:00,56.2,54.8,29.72,North,5,3.5,3.5,95,0.00,CLR,,0.00,14.0,WeatherDisplay:10.37,2013-05-23 11:43:00,
2013-05-23 07:48:00,56.2,55.1,29.72,NE,41,4.0,4.0,96,0.00,CLR,,0.00,12.0,WeatherDisplay:10.37,2013-05-23 11:48:00,
2013-05-23 07:53:00,56.1,55.0,29.72,NE,36,3.5,3.5,96,0.00,CLR,,0.00,11.0,WeatherDisplay:10.37,2013-05-23 11:53:00,
2013-05-23 07:58:00,56.0,54.9,29.73,North,360,9.2,9.2,96,0.00,CLR,,0.00,28.0,WeatherDisplay:10.37,2013-05-23 11:58:00,
2013-05-23 08:03:00,56.0,54.9,29.73,ENE,74,3.5,3.5,96,0.00,OVC,,0.00,33.0,WeatherDisplay:10.37,2013-05-23 12:03:00,
2013-05-23 08:08:00,56.0,54.9,29.73,ENE,76,6.9,6.9,96,0.00,OVC,,0.00,32.0,WeatherDisplay:10.37,2013-05-23 12:08:00,
2013-05-23 08:13:00,55.8,54.4,29.73,ENE,60,3.5,3.5,95,0.00,OVC,,0.00,26.0,WeatherDisplay:10.37,2013-05-23 12:13:00,
2013-05-23 08:18:00,55.7,54.3,29.73,East,86,3.5,3.5,95,0.00,OVC,,0.00,18.0,WeatherDisplay:10.37,2013-05-23 12:18:00,
2013-05-23 08:23:00,55.6,54.2,29.74,NNE,29,8.1,8.1,95,0.00,OVC,,0.00,28.0,WeatherDisplay:10.37,2013-05-23 12:23:00,
2013-05-23 08:28:00,55.3,53.9,29.74,NE,49,4.6,4.6,95,0.00,OVC,,0.00,26.0,WeatherDisplay:10.37,2013-05-23 12:28:00,
2013-05-23 08:33:00,55.3,53.9,29.74,NNE,15,4.6,4.6,95,0.00,OVC,,0.00,26.0,WeatherDisplay:10.37,2013-05-23 12:33:00,
2013-05-23 08:38:00,55.4,54.0,29.74,NNE,19,4.6,4.6,95,0.00,OVC,,0.00,30.0,WeatherDisplay:10.37,2013-05-23 12:38:00,
2013-05-23 08:43:00,55.4,54.0,29.74,NNE,13,10.0,10.0,95,0.00,OVC,,0.00,32.0,WeatherDisplay:10.37,2013-05-23 12:43:00,
2013-05-23 08:48:00,55.3,53.9,29.74,NE,51,2.3,2.3,95,0.00,OVC,,0.00,25.0,WeatherDisplay:10.37,2013-05-23 12:48:00,
2013-05-23 08:53:00,55.2,53.8,29.75,NNE,26,3.5,3.5,95,0.00,OVC,,0.00,23.0,WeatherDisplay:10.37,2013-05-23 12:53:00,
2013-05-23 08:58:00,55.1,53.7,29.75,NE,49,6.9,6.9,95,0.00,OVC,,0.00,35.0,WeatherDisplay:10.37,2013-05-23 12:58:00,
2013-05-23 09:03:00,55.1,53.7,29.75,NE,55,4.6,4.6,95,0.00,OVC,,0.00,25.0,WeatherDisplay:10.37,2013-05-23 13:03:00,
2013-05-23 09:08:00,55.0,53.6,29.75,NNE,15,5.8,5.8,95,0.00,OVC,,0.00,25.0,WeatherDisplay:10.37,2013-05-23 13:08:00,
2013-05-23 09:13:00,55.0,53.6,29.75,NE,35,3.5,3.5,95,0.00,OVC,,0.00,26.0,WeatherDisplay:10.37,2013-05-23 13:13:00,
2013-05-23 09:18:00,55.0,53.6,29.76,NNE,17,6.0,6.0,95,0.00,OVC,,0.00,26.0,WeatherDisplay:10.37,2013-05-23 13:18:00,
2013-05-23 09:23:00,54.9,53.5,29.76,NE,40,5.8,5.8,95,0.01,RA,,0.01,33.0,WeatherDisplay:10.37,2013-05-23 13:23:00,
2013-05-23 09:28:00,54.5,52.8,29.76,NNE,13,10.4,10.4,94,0.02,RA,,0.02,33.0,WeatherDisplay:10.37,2013-05-23 13:28:00,
2013-05-23 09:33:00,54.3,52.6,29.77,NNW,345,4.6,4.6,94,0.02,RA,,0.02,44.0,WeatherDisplay:10.37,2013-05-23 13:33:00,
2013-05-23 09:38:00,54.3,52.9,29.77,ENE,59,6.9,6.9,95,0.02,OVC,,0.02,72.0,WeatherDisplay:10.37,2013-05-23 13:38:00,
2013-05-23 09:43:00,54.1,52.7,29.77,NNE,32,12.7,12.7,95,0.02,OVC,,0.02,83.0,WeatherDisplay:10.37,2013-05-23 13:43:00,
2013-05-23 09:48:00,53.9,52.5,29.77,NNE,20,10.4,10.4,95,0.02,OVC,,0.02,93.0,WeatherDisplay:10.37,2013-05-23 13:48:00,
2013-05-23 09:53:00,53.6,51.9,29.77,North,360,12.0,12.0,94,0.02,OVC,,0.02,69.0,WeatherDisplay:10.37,2013-05-23 13:53:00,
2013-05-23 09:58:00,52.9,51.2,29.78,NNE,32,11.5,11.5,94,0.02,OVC,,0.02,60.0,WeatherDisplay:10.37,2013-05-23 13:58:00,
2013-05-23 10:03:00,52.3,50.6,29.78,NNE,17,15.0,15.0,94,0.02,OVC,,0.02,47.0,WeatherDisplay:10.37,2013-05-23 14:03:00,
2013-05-23 10:08:00,51.9,50.2,29.78,North,11,13.0,13.0,94,0.02,OVC,,0.02,58.0,WeatherDisplay:10.37,2013-05-23 14:08:00,
2013-05-23 10:13:00,51.7,50.0,29.78,NNE,15,11.0,11.0,94,0.05,RA,,0.05,67.0,WeatherDisplay:10.37,2013-05-23 14:13:00,
2013-05-23 10:18:00,51.4,50.0,29.79,NE,44,11.5,11.5,95,0.05,RA,,0.05,69.0,WeatherDisplay:10.37,2013-05-23 14:18:00,
2013-05-23 10:23:00,51.2,49.8,29.79,NE,46,12.0,12.0,95,0.04,OVC,,0.05,63.0,WeatherDisplay:10.37,2013-05-23 14:23:00,
2013-05-23 10:28:00,50.8,49.1,29.80,NNE,15,18.4,18.4,94,0.03,OVC,,0.05,60.0,WeatherDisplay:10.37,2013-05-23 14:28:00,
2013-05-23 10:33:00,50.4,48.7,29.80,NNE,16,11.5,11.5,94,0.03,OVC,,0.05,62.0,WeatherDisplay:10.37,2013-05-23 14:33:00,
2013-05-23 10:38:00,50.2,48.8,29.80,North,355,6.9,6.9,95,0.03,OVC,,0.05,63.0,WeatherDisplay:10.37,2013-05-23 14:38:00,
2013-05-23 10:43:00,50.0,48.6,29.80,North,355,17.3,17.3,95,0.03,OVC,,0.05,74.0,WeatherDisplay:10.37,2013-05-23 14:43:00,
2013-05-23 10:49:00,49.8,48.4,29.81,NNE,22,12.7,12.7,95,0.03,OVC,,0.05,58.0,WeatherDisplay:10.37,2013-05-23 14:49:00,
2013-05-23 10:54:00,49.6,48.2,29.81,NNE,26,13.8,13.8,95,0.03,OVC,,0.05,51.0,WeatherDisplay:10.37,2013-05-23 14:54:00,
2013-05-23 10:59:00,49.5,48.1,29.82,North,11,11.5,11.5,95,0.03,OVC,,0.05,40.0,WeatherDisplay:10.37,2013-05-23 14:59:00,
2013-05-23 11:04:00,49.2,47.8,29.82,NNE,31,12.0,12.0,95,0.03,OVC,,0.06,33.0,WeatherDisplay:10.37,2013-05-23 15:04:00,
2013-05-23 11:09:00,48.9,47.5,29.82,NNE,30,9.2,9.3,95,0.04,RA,,0.06,44.0,WeatherDisplay:10.37,2013-05-23 15:09:00,
2013-05-23 11:14:00,48.6,47.0,29.82,North,5,15.0,15.0,94,0.01,RA,,0.06,70.0,WeatherDisplay:10.37,2013-05-23 15:14:00,
2013-05-23 11:19:00,48.5,46.9,29.82,ENE,57,10.4,10.4,94,0.01,CLR,,0.06,88.0,WeatherDisplay:10.37,2013-05-23 15:19:00,
2013-05-23 11:24:00,48.3,46.7,29.83,North,5,11.5,11.5,94,0.02,RA,,0.07,69.0,WeatherDisplay:10.37,2013-05-23 15:24:00,
2013-05-23 11:29:00,48.0,46.4,29.83,NNE,26,16.1,16.1,94,0.02,RA,,0.07,54.0,WeatherDisplay:10.37,2013-05-23 15:29:00,
2013-05-23 11:34:00,47.6,46.0,29.83,NE,40,16.1,16.1,94,0.02,CLR,,0.07,51.0,WeatherDisplay:10.37,2013-05-23 15:34:00,
2013-05-23 11:39:00,47.2,45.6,29.84,North,9,17.3,17.3,94,0.02,CLR,,0.07,79.0,WeatherDisplay:10.37,2013-05-23 15:39:00,
2013-05-23 11:44:00,46.9,45.0,29.84,ENE,59,15.0,15.0,93,0.02,CLR,,0.07,127.0,WeatherDisplay:10.37,2013-05-23 15:44:00,
2013-05-23 11:49:00,46.7,45.1,29.84,NNE,26,13.8,13.8,94,0.02,CLR,,0.07,125.0,WeatherDisplay:10.37,2013-05-23 15:49:00,
2013-05-23 11:54:00,46.8,45.2,29.84,NNW,346,16.1,16.1,94,0.02,CLR,,0.07,93.0,WeatherDisplay:10.37,2013-05-23 15:54:00,
2013-05-23 11:59:00,46.7,45.1,29.85,NNE,27,8.1,8.1,94,0.03,RA,,0.08,97.0,WeatherDisplay:10.37,2013-05-23 15:59:00,
2013-05-23 12:04:00,46.5,44.9,29.85,North,5,12.7,12.7,94,0.03,RA,,0.08,97.0,WeatherDisplay:10.37,2013-05-23 16:04:00,
2013-05-23 12:09:00,46.3,44.7,29.85,NNE,15,15.0,15.0,94,0.02,SCT,,0.08,83.0,WeatherDisplay:10.37,2013-05-23 16:09:00,
2013-05-23 12:14:00,46.0,44.4,29.85,North,5,13.8,13.8,94,0.02,SCT,,0.08,83.0,WeatherDisplay:10.37,2013-05-23 16:14:00,
2013-05-23 12:19:00,46.0,44.4,29.86,North,11,13.0,13.0,94,0.02,SCT,,0.08,111.0,WeatherDisplay:10.37,2013-05-23 16:19:00,
2013-05-23 12:24:00,46.0,44.4,29.86,ENE,60,6.9,6.9,94,0.01,SCT,,0.08,100.0,WeatherDisplay:10.37,2013-05-23 16:24:00,
2013-05-23 12:29:00,46.1,44.5,29.86,ENE,59,12.0,12.0,94,0.01,SCT,,0.08,137.0,WeatherDisplay:10.37,2013-05-23 16:29:00,
2013-05-23 12:34:00,46.0,44.4,29.87,NE,44,11.5,11.5,94,0.02,RA,,0.09,109.0,WeatherDisplay:10.37,2013-05-23 16:34:00,
2013-05-23 12:39:00,45.9,44.3,29.87,North,360,17.3,17.3,94,0.02,RA,,0.09,142.0,WeatherDisplay:10.37,2013-05-23 16:39:00,
2013-05-23 12:44:00,45.9,44.3,29.87,NE,46,13.0,13.0,94,0.02,FEW,,0.09,146.0,WeatherDisplay:10.37,2013-05-23 16:44:00,
2013-05-23 12:49:00,46.0,44.4,29.87,North,10,11.5,11.5,94,0.03,RA,,0.10,141.0,WeatherDisplay:10.37,2013-05-23 16:49:00,
2013-05-23 12:54:00,45.9,44.3,29.88,NE,40,12.7,12.7,94,0.03,RA,,0.10,156.0,WeatherDisplay:10.37,2013-05-23 16:54:00,
2013-05-23 12:59:00,45.8,44.2,29.87,North,355,17.3,17.3,94,0.03,RA,,0.11,148.0,WeatherDisplay:10.37,2013-05-23 16:59:00,
2013-05-23 13:04:00,45.6,44.0,29.88,NNE,25,11.5,11.5,94,0.04,RA,,0.12,135.0,WeatherDisplay:10.37,2013-05-23 17:04:00,
2013-05-23 13:09:00,45.5,43.9,29.88,NNE,13,11.5,11.5,94,0.06,RA,,0.15,146.0,WeatherDisplay:10.37,2013-05-23 17:09:00,
2013-05-23 13:14:00,45.4,43.8,29.88,NNE,32,13.8,13.8,94,0.08,RA,,0.17,204.0,WeatherDisplay:10.37,2013-05-23 17:14:00,
2013-05-23 13:19:00,45.6,44.3,29.88,North,355,12.0,12.0,95,0.10,RA,,0.18,202.0,WeatherDisplay:10.37,2013-05-23 17:19:00,
2013-05-23 13:24:00,45.6,44.3,29.88,NNE,17,12.0,12.0,95,0.10,RA,,0.18,197.0,WeatherDisplay:10.37,2013-05-23 17:24:00,
2013-05-23 13:29:00,45.6,44.0,29.89,NNE,17,16.1,16.1,94,0.11,RA,,0.19,186.0,WeatherDisplay:10.37,2013-05-23 17:29:00,
2013-05-23 13:34:00,45.6,44.3,29.89,NNE,16,14.0,14.0,95,0.10,RA,,0.19,197.0,WeatherDisplay:10.37,2013-05-23 17:34:00,
2013-05-23 13:39:00,45.5,43.9,29.89,NNE,19,19.6,19.6,94,0.10,BKN,,0.19,202.0,WeatherDisplay:10.37,2013-05-23 17:39:00,
2013-05-23 13:44:00,45.4,43.8,29.89,NE,44,16.1,16.1,94,0.11,RA,,0.20,121.0,WeatherDisplay:10.37,2013-05-23 17:44:00,
2013-05-23 13:49:00,45.3,43.7,29.89,North,9,22.0,22.0,94,0.10,RA,,0.20,155.0,WeatherDisplay:10.37,2013-05-23 17:49:00,
2013-05-23 13:54:00,45.0,43.1,29.90,NNE,16,16.1,16.1,93,0.10,BKN,,0.20,130.0,WeatherDisplay:10.37,2013-05-23 17:54:00,
2013-05-23 13:59:00,44.9,43.3,29.90,NE,47,11.5,11.5,94,0.09,BKN,,0.20,127.0,WeatherDisplay:10.37,2013-05-23 17:59:00,
2013-05-23 14:04:00,44.7,43.1,29.90,NE,41,13.8,13.8,94,0.08,BKN,,0.20,97.0,WeatherDisplay:10.37,2013-05-23 18:04:00,
2013-05-23 14:09:00,44.6,42.7,29.90,North,360,13.8,13.8,93,0.05,BKN,,0.20,77.0,WeatherDisplay:10.37,2013-05-23 18:09:00,
2013-05-23 14:14:00,44.5,42.6,29.91,North,9,18.4,18.4,93,0.04,BKN,,0.20,86.0,WeatherDisplay:10.37,2013-05-23 18:14:00,
2013-05-23 14:19:00,44.3,42.4,29.91,North,10,15.0,15.0,93,0.02,BKN,,0.20,114.0,WeatherDisplay:10.37,2013-05-23 18:19:00,
2013-05-23 14:24:00,44.3,42.4,29.91,North,355,16.1,16.1,93,0.02,BKN,,0.20,123.0,WeatherDisplay:10.37,2013-05-23 18:24:00,
2013-05-23 14:29:00,44.2,42.3,29.92,NNE,26,13.8,13.8,93,0.01,BKN,,0.20,130.0,WeatherDisplay:10.37,2013-05-23 18:29:00,
2013-05-23 14:34:00,44.3,42.4,29.92,ENE,62,16.1,16.1,93,0.01,BKN,,0.20,153.0,WeatherDisplay:10.37,2013-05-23 18:34:00,
2013-05-23 14:39:00,44.2,42.3,29.92,North,350,17.3,17.3,93,0.01,BKN,,0.20,181.0,WeatherDisplay:10.37,2013-05-23 18:39:00,
2013-05-23 14:44:00,44.3,42.4,29.92,NNE,19,15.0,15.0,93,0.00,BKN,,0.20,148.0,WeatherDisplay:10.37,2013-05-23 18:44:00,
2013-05-23 14:49:00,44.3,42.4,29.92,NNE,18,12.7,12.7,93,0.01,RA,,0.21,127.0,WeatherDisplay:10.37,2013-05-23 18:49:00,
2013-05-23 14:54:00,44.2,42.3,29.93,NNE,31,15.0,15.0,93,0.01,RA,,0.21,149.0,WeatherDisplay:10.37,2013-05-23 18:54:00,
2013-05-23 14:59:00,44.1,42.2,29.93,NNE,23,16.1,16.1,93,0.01,BKN,,0.21,167.0,WeatherDisplay:10.37,2013-05-23 18:59:00,
2013-05-23 15:04:00,44.1,42.2,29.93,North,360,18.4,18.4,93,0.02,RA,,0.22,190.0,WeatherDisplay:10.37,2013-05-23 19:04:00,
2013-05-23 15:09:00,44.1,42.2,29.94,North,5,11.5,11.5,93,0.02,RA,,0.22,105.0,WeatherDisplay:10.37,2013-05-23 19:09:00,
2013-05-23 15:14:00,44.1,42.2,29.94,North,5,10.4,10.4,93,0.02,BKN,,0.22,86.0,WeatherDisplay:10.37,2013-05-23 19:14:00,
2013-05-23 15:19:00,44.0,42.4,29.94,North,5,12.7,12.7,94,0.02,BKN,,0.22,121.0,WeatherDisplay:10.37,2013-05-23 19:19:00,
2013-05-23 15:24:00,43.9,42.3,29.95,NNE,26,11.5,11.5,94,0.03,RA,,0.23,116.0,WeatherDisplay:10.37,2013-05-23 19:24:00,
2013-05-23 15:29:00,43.8,42.2,29.95,NW,325,14.0,14.0,94,0.03,RA,,0.23,137.0,WeatherDisplay:10.37,2013-05-23 19:29:00,
2013-05-23 15:34:00,43.7,41.8,29.95,North,355,19.6,19.6,93,0.03,BKN,,0.23,105.0,WeatherDisplay:10.37,2013-05-23 19:34:00,
2013-05-23 15:39:00,43.5,41.3,29.95,NNE,22,15.0,15.0,92,0.03,BKN,,0.23,95.0,WeatherDisplay:10.37,2013-05-23 19:39:00,
2013-05-23 15:44:00,43.4,41.5,29.95,North,9,17.3,17.3,93,0.03,BKN,,0.23,102.0,WeatherDisplay:10.37,2013-05-23 19:44:00,
2013-05-23 15:49:00,43.3,41.1,29.96,NE,42,20.7,20.7,92,0.02,BKN,,0.23,90.0,WeatherDisplay:10.37,2013-05-23 19:49:00,
2013-05-23 15:54:00,43.1,40.9,29.96,NE,46,19.6,19.6,92,0.02,BKN,,0.23,111.0,WeatherDisplay:10.37,2013-05-23 19:54:00,
2013-05-23 15:59:00,43.1,41.2,29.96,NNE,12,20.0,20.0,93,0.03,RA,,0.24,113.0,WeatherDisplay:10.37,2013-05-23 19:59:00,
2013-05-23 16:04:00,42.9,40.7,29.96,NNE,12,24.2,24.2,92,0.02,RA,,0.24,116.0,WeatherDisplay:10.37,2013-05-23 20:04:00,
2013-05-23 16:09:00,42.9,41.0,29.97,NNE,19,11.5,11.5,93,0.03,RA,,0.25,134.0,WeatherDisplay:10.37,2013-05-23 20:09:00,
2013-05-23 16:14:00,42.9,41.0,29.97,NNE,21,16.1,16.1,93,0.04,RA,,0.26,188.0,WeatherDisplay:10.37,2013-05-23 20:14:00,
2013-05-23 16:19:00,43.0,41.1,29.97,NNE,26,16.1,16.1,93,0.04,RA,,0.26,227.0,WeatherDisplay:10.37,2013-05-23 20:19:00,
2013-05-23 16:24:00,43.1,41.2,29.97,North,355,19.6,19.6,93,0.03,BKN,,0.26,220.0,WeatherDisplay:10.37,2013-05-23 20:24:00,
2013-05-23 16:29:00,43.3,41.7,29.97,NE,38,11.5,11.5,94,0.04,RA,,0.27,162.0,WeatherDisplay:10.37,2013-05-23 20:29:00,
2013-05-23 16:34:00,43.3,41.7,29.97,North,355,15.0,15.0,94,0.05,RA,,0.28,169.0,WeatherDisplay:10.37,2013-05-23 20:34:00,
2013-05-23 16:39:00,43.2,41.3,29.97,NNE,23,17.3,17.3,93,0.05,RA,,0.28,158.0,WeatherDisplay:10.37,2013-05-23 20:39:00,
2013-05-23 16:44:00,43.3,41.7,29.98,NNE,32,11.5,11.5,94,0.05,BKN,,0.28,183.0,WeatherDisplay:10.37,2013-05-23 20:44:00,
2013-05-23 16:49:00,43.5,41.9,29.98,North,5,11.5,11.5,94,0.06,RA,,0.29,160.0,WeatherDisplay:10.37,2013-05-23 20:49:00,
2013-05-23 16:54:00,43.5,41.9,29.98,North,355,11.5,11.5,94,0.06,RA,,0.29,127.0,WeatherDisplay:10.37,2013-05-23 20:54:00,
2013-05-23 16:59:00,43.5,41.9,29.98,NNE,17,10.4,10.4,94,0.05,BKN,,0.29,76.0,WeatherDisplay:10.37,2013-05-23 20:59:00,
2013-05-23 17:04:00,43.4,41.8,29.98,North,355,13.8,13.8,94,0.05,BKN,,0.29,104.0,WeatherDisplay:10.37,2013-05-23 21:04:00,
2013-05-23 17:09:00,43.3,41.4,29.99,NNE,26,13.8,13.8,93,0.04,BKN,,0.29,137.0,WeatherDisplay:10.37,2013-05-23 21:09:00,
2013-05-23 17:14:00,43.3,41.7,29.99,North,5,13.8,13.8,94,0.03,BKN,,0.29,141.0,WeatherDisplay:10.37,2013-05-23 21:14:00,
2013-05-23 17:19:00,43.4,41.8,29.99,NNE,12,11.5,11.5,94,0.03,BKN,,0.29,148.0,WeatherDisplay:10.37,2013-05-23 21:19:00,
2013-05-23 17:24:00,43.7,42.1,29.99,NNE,17,12.7,12.7,94,0.03,BKN,,0.29,130.0,WeatherDisplay:10.37,2013-05-23 21:24:00,
2013-05-23 17:29:00,43.8,42.2,30.00,NNE,33,10.4,10.4,94,0.02,BKN,,0.29,127.0,WeatherDisplay:10.37,2013-05-23 21:29:00,
2013-05-23 17:34:00,43.9,42.3,30.00,NNE,16,12.7,12.7,94,0.02,RA,,0.30,93.0,WeatherDisplay:10.37,2013-05-23 21:34:00,
2013-05-23 17:39:00,43.9,42.3,30.00,NE,51,9.2,9.2,94,0.02,RA,,0.30,100.0,WeatherDisplay:10.37,2013-05-23 21:39:00,
2013-05-23 17:44:00,44.0,42.4,30.00,NNE,25,10.0,10.0,94,0.02,BKN,,0.30,88.0,WeatherDisplay:10.37,2013-05-23 21:44:00,
2013-05-23 17:49:00,44.1,42.5,30.00,North,360,8.0,8.0,94,0.01,BKN,,0.30,88.0,WeatherDisplay:10.37,2013-05-23 21:49:00,
2013-05-23 17:54:00,44.0,42.4,30.01,NNE,19,13.0,13.0,94,0.01,BKN,,0.30,81.0,WeatherDisplay:10.37,2013-05-23 21:54:00,
2013-05-23 17:59:00,44.0,42.4,30.01,NE,46,11.5,11.5,94,0.01,BKN,,0.30,76.0,WeatherDisplay:10.37,2013-05-23 21:59:00,
2013-05-23 18:04:00,44.1,42.5,30.02,NNE,15,9.2,9.2,94,0.01,OVC,,0.30,49.0,WeatherDisplay:10.37,2013-05-23 22:04:00,
2013-05-23 18:09:00,44.2,42.6,30.01,ENE,58,8.0,8.0,94,0.01,OVC,,0.30,46.0,WeatherDisplay:10.37,2013-05-23 22:09:00,
2013-05-23 18:14:00,44.1,42.5,30.02,NNW,339,8.0,8.0,94,0.01,OVC,,0.30,46.0,WeatherDisplay:10.37,2013-05-23 22:14:00,
2013-05-23 18:19:00,44.2,42.6,30.02,North,9,15.0,15.0,94,0.01,OVC,,0.30,53.0,WeatherDisplay:10.37,2013-05-23 22:19:00,
2013-05-23 18:24:00,44.3,42.7,30.02,NNE,30,5.0,5.0,94,0.01,OVC,,0.30,49.0,WeatherDisplay:10.37,2013-05-23 22:24:00,
2013-05-23 18:29:00,44.3,42.7,30.03,NNE,21,11.5,11.5,94,0.01,OVC,,0.30,32.0,WeatherDisplay:10.37,2013-05-23 22:29:00,
2013-05-23 18:34:00,44.1,42.2,30.03,North,9,16.1,16.1,93,0.00,OVC,,0.30,25.0,WeatherDisplay:10.37,2013-05-23 22:34:00,
2013-05-23 18:39:00,43.9,42.0,30.04,NNE,33,10.4,10.4,93,0.00,OVC,,0.30,19.0,WeatherDisplay:10.37,2013-05-23 22:39:00,
2013-05-23 18:44:00,43.6,41.7,30.04,NE,40,19.6,19.6,93,0.00,OVC,,0.30,18.0,WeatherDisplay:10.37,2013-05-23 22:44:00,
2013-05-23 18:49:00,43.4,41.5,30.04,North,355,15.0,15.0,93,0.00,OVC,,0.30,16.0,WeatherDisplay:10.37,2013-05-23 22:49:00,
2013-05-23 18:54:00,43.3,41.4,30.04,NE,49,11.5,11.5,93,0.00,OVC,,0.30,16.0,WeatherDisplay:10.37,2013-05-23 22:54:00,
2013-05-23 18:59:00,43.2,41.3,30.05,NNE,29,11.5,11.5,93,0.00,OVC,,0.30,16.0,WeatherDisplay:10.37,2013-05-23 22:59:00,
2013-05-23 19:04:00,43.1,41.2,30.05,NNE,30,10.4,10.4,93,0.00,CLR,,0.30,18.0,WeatherDisplay:10.37,2013-05-23 23:04:00,
2013-05-23 19:09:00,42.9,41.0,30.05,NNE,23,9.2,9.2,93,0.00,CLR,,0.30,19.0,WeatherDisplay:10.37,2013-05-23 23:09:00,
2013-05-23 19:14:00,42.8,40.9,30.05,North,9,10.4,10.4,93,0.00,CLR,,0.30,19.0,WeatherDisplay:10.37,2013-05-23 23:14:00,
2013-05-23 19:19:00,42.9,41.0,30.06,ENE,77,8.0,8.0,93,0.00,CLR,,0.30,23.0,WeatherDisplay:10.37,2013-05-23 23:19:00,
2013-05-23 19:24:00,42.9,41.0,30.06,NNE,17,6.9,6.9,93,0.00,CLR,,0.30,26.0,WeatherDisplay:10.37,2013-05-23 23:24:00,
2013-05-23 19:29:00,43.0,41.1,30.07,NNE,26,9.2,9.2,93,0.00,CLR,,0.30,32.0,WeatherDisplay:10.37,2013-05-23 23:29:00,
2013-05-23 19:34:00,43.1,41.2,30.07,NNE,25,8.1,8.1,93,0.00,CLR,,0.30,37.0,WeatherDisplay:10.37,2013-05-23 23:34:00,
2013-05-23 19:39:00,43.2,41.3,30.07,North,360,6.9,6.9,93,0.00,CLR,,0.30,33.0,WeatherDisplay:10.37,2013-05-23 23:39:00,
2013-05-23 19:44:00,43.2,41.3,30.07,NNE,29,9.2,9.2,93,0.00,CLR,,0.30,30.0,WeatherDisplay:10.37,2013-05-23 23:44:00,
2013-05-23 19:49:00,43.2,41.3,30.07,NNE,30,9.2,9.2,93,0.00,CLR,,0.30,28.0,WeatherDisplay:10.37,2013-05-23 23:49:00,
2013-05-23 19:54:00,43.3,41.4,30.07,NNE,18,5.8,5.8,93,0.00,CLR,,0.30,25.0,WeatherDisplay:10.37,2013-05-23 23:54:00,
2013-05-23 19:59:00,43.3,41.4,30.07,North,355,6.0,6.0,93,0.00,CLR,,0.30,12.0,WeatherDisplay:10.37,2013-05-23 23:59:00,
2013-05-23 20:05:00,43.4,41.5,30.08,NNE,26,6.0,6.0,93,0.00,CLR,,0.30,14.0,WeatherDisplay:10.37,2013-05-24 00:05:00,
2013-05-23 20:10:00,43.5,41.6,30.08,North,9,11.5,11.5,93,0.00,CLR,,0.30,12.0,WeatherDisplay:10.37,2013-05-24 00:10:00,
2013-05-23 20:15:00,43.5,41.6,30.08,NNW,346,8.0,8.0,93,0.00,CLR,,0.30,7.0,WeatherDisplay:10.37,2013-05-24 00:15:00,
2013-05-23 20:20:00,43.5,41.6,30.08,NNE,17,4.6,4.6,93,0.00,CLR,,0.30,5.0,WeatherDisplay:10.37,2013-05-24 00:20:00,
2013-05-23 20:25:00,43.5,41.3,30.09,NE,43,9.2,9.2,92,0.00,CLR,,0.30,5.0,WeatherDisplay:10.37,2013-05-24 00:25:00,
2013-05-23 20:30:00,43.5,41.6,30.09,North,360,5.8,5.8,93,0.00,CLR,,0.30,0.0,WeatherDisplay:10.37,2013-05-24 00:30:00,
2013-05-23 20:35:00,43.6,41.7,30.09,North,5,5.8,5.8,93,0.00,CLR,,0.30,0.0,WeatherDisplay:10.37,2013-05-24 00:35:00,
2013-05-23 20:40:00,43.7,41.8,30.09,NNW,334,6.0,6.0,93,0.00,CLR,,0.30,0.0,WeatherDisplay:10.37,2013-05-24 00:40:00,
2013-05-23 20:45:00,43.8,41.9,30.09,North,360,8.1,8.1,93,0.00,CLR,,0.30,0.0,WeatherDisplay:10.37,2013-05-24 00:45:00,
2013-05-23 20:50:00,43.9,42.0,30.09,North,360,6.9,6.9,93,0.00,CLR,,0.30,0.0,WeatherDisplay:10.37,2013-05-24 00:50:00,
2013-05-23 20:55:00,44.0,42.1,30.09,NNE,22,6.0,6.0,93,0.00,CLR,,0.30,0.0,WeatherDisplay:10.37,2013-05-24 00:55:00,
2013-05-23 21:00:00,44.0,42.1,30.10,North,10,3.5,3.5,93,0.00,CLR,,0.30,0.0,WeatherDisplay:10.37,2013-05-24 01:00:00,
2013-05-23 21:05:00,44.0,42.4,30.10,North,349,5.8,5.8,94,0.00,CLR,,0.30,0.0,WeatherDisplay:10.37,2013-05-24 01:05:00,
2013-05-23 21:10:00,44.1,42.5,30.10,North,355,6.0,6.0,94,0.00,CLR,,0.30,0.0,WeatherDisplay:10.37,2013-05-24 01:10:00,
2013-05-23 21:15:00,44.2,42.6,30.10,North,349,3.5,3.7,94,0.00,CLR,,0.30,0.0,WeatherDisplay:10.37,2013-05-24 01:15:00,
2013-05-23 21:20:00,44.2,42.6,30.10,North,5,3.5,3.5,94,0.00,CLR,,0.30,0.0,WeatherDisplay:10.37,2013-05-24 01:20:00,
2013-05-23 21:25:00,44.3,42.7,30.11,North,360,4.6,4.6,94,0.00,CLR,,0.30,0.0,WeatherDisplay:10.37,2013-05-24 01:25:00,
2013-05-23 21:30:00,44.3,42.7,30.11,North,360,3.5,3.5,94,0.00,CLR,,0.30,0.0,WeatherDisplay:10.37,2013-05-24 01:30:00,
2013-05-23 21:35:00,44.4,42.8,30.11,North,5,3.5,3.5,94,0.00,CLR,,0.30,0.0,WeatherDisplay:10.37,2013-05-24 01:35:00,
2013-05-23 21:40:00,44.4,42.8,30.11,North,5,3.5,3.5,94,0.00,CLR,,0.30,0.0,WeatherDisplay:10.37,2013-05-24 01:40:00,
2013-05-23 21:45:00,44.4,42.8,30.11,North,5,3.5,3.5,94,0.00,CLR,,0.30,0.0,WeatherDisplay:10.37,2013-05-24 01:45:00,
2013-05-23 21:50:00,44.4,42.8,30.12,NNW,331,3.5,3.5,94,0.00,CLR,,0.30,0.0,WeatherDisplay:10.37,2013-05-24 01:50:00,
2013-05-23 21:55:00,44.4,42.8,30.12,North,355,3.5,3.5,94,0.00,CLR,,0.30,0.0,WeatherDisplay:10.37,2013-05-24 01:55:00,
2013-05-23 22:00:00,44.4,42.8,30.12,North,350,3.5,3.5,94,0.00,CLR,,0.30,0.0,WeatherDisplay:10.37,2013-05-24 02:00:00,
2013-05-23 22:05:00,44.5,42.9,30.12,NW,317,5.0,5.0,94,0.00,CLR,,0.30,0.0,WeatherDisplay:10.37,2013-05-24 02:05:00,
2013-05-23 22:10:00,44.6,43.0,30.12,North,360,4.0,4.0,94,0.00,CLR,,0.30,0.0,WeatherDisplay:10.37,2013-05-24 02:10:00,
2013-05-23 22:15:00,44.6,43.0,30.12,North,355,4.6,4.6,94,0.00,CLR,,0.30,0.0,WeatherDisplay:10.37,2013-05-24 02:15:00,
2013-05-23 22:20:00,44.6,43.0,30.13,NNW,344,3.5,3.5,94,0.00,CLR,,0.30,0.0,WeatherDisplay:10.37,2013-05-24 02:20:00,
2013-05-23 22:25:00,44.7,43.1,30.13,NNW,345,4.0,4.0,94,0.00,CLR,,0.30,0.0,WeatherDisplay:10.37,2013-05-24 02:25:00,
2013-05-23 22:30:00,44.6,43.0,30.13,NNW,345,3.5,3.5,94,0.00,CLR,,0.30,0.0,WeatherDisplay:10.37,2013-05-24 02:30:00,
2013-05-23 22:35:00,44.5,42.6,30.14,NNW,345,3.5,3.5,93,0.00,CLR,,0.30,0.0,WeatherDisplay:10.37,2013-05-24 02:35:00,
2013-05-23 22:40:00,44.3,42.4,30.14,NNW,345,3.5,3.5,93,0.00,CLR,,0.30,0.0,WeatherDisplay:10.37,2013-05-24 02:40:00,
2013-05-23 22:45:00,44.1,42.2,30.14,NNW,345,2.3,2.3,93,0.00,CLR,,0.30,0.0,WeatherDisplay:10.37,2013-05-24 02:45:00,
2013-05-23 22:50:00,43.9,42.0,30.14,NNW,345,1.1,1.1,93,0.00,CLR,,0.30,0.0,WeatherDisplay:10.37,2013-05-24 02:50:00,
2013-05-23 22:55:00,43.6,41.7,30.15,NNW,345,2.0,2.0,93,0.00,CLR,,0.30,0.0,WeatherDisplay:10.37,2013-05-24 02:55:00,
2013-05-23 23:00:00,43.4,41.5,30.15,NNW,345,3.5,3.5,93,0.00,CLR,,0.30,0.0,WeatherDisplay:10.37,2013-05-24 03:00:00,
2013-05-23 23:05:00,43.2,41.6,30.15,NNW,345,3.5,3.5,94,0.00,CLR,,0.30,0.0,WeatherDisplay:10.37,2013-05-24 03:05:00,
2013-05-23 23:10:00,43.0,41.4,30.15,NNW,345,3.5,3.5,94,0.00,CLR,,0.30,0.0,WeatherDisplay:10.37,2013-05-24 03:10:00,
2013-05-23 23:15:00,42.8,41.2,30.15,NNW,345,2.0,4.0,94,0.00,CLR,,0.30,0.0,WeatherDisplay:10.37,2013-05-24 03:15:00,
2013-05-23 23:20:00,42.7,41.1,30.15,NNW,345,2.0,4.0,94,0.00,CLR,,0.30,0.0,WeatherDisplay:10.37,2013-05-24 03:20:00,
2013-05-23 23:25:00,42.6,41.0,30.15,NNW,345,0.0,3.0,94,0.00,CLR,,0.30,0.0,WeatherDisplay:10.37,2013-05-24 03:25:00,
2013-05-23 23:30:00,42.5,41.2,30.15,NNW,345,1.0,2.0,95,0.00,CLR,,0.30,0.0,WeatherDisplay:10.37,2013-05-24 03:30:00,
2013-05-23 23:35:00,42.5,41.2,30.15,NNW,345,1.0,2.0,95,0.00,CLR,,0.30,0.0,WeatherDisplay:10.37,2013-05-24 03:35:00,
2013-05-23 23:40:00,42.5,41.2,30.15,NNW,345,1.0,3.0,95,0.00,CLR,,0.30,0.0,WeatherDisplay:10.37,2013-05-24 03:40:00,
2013-05-23 23:45:00,42.5,41.2,30.15,NNW,345,1.0,2.0,95,0.00,CLR,,0.30,0.0,WeatherDisplay:10.37,2013-05-24 03:45:00,
2013-05-23 23:50:00,42.6,41.2,30.15,NNW,345,1.0,4.0,95,0.00,CLR,,0.30,0.0,WeatherDisplay:10.37,2013-05-24 03:50:00,
2013-05-23 23:55:00,42.6,41.3,30.16,NNW,345,1.0,3.0,95,0.00,CLR,,0.30,0.0,WeatherDisplay:10.37,2013-05-24 03:55:00,